Location: Arcizac
(43.0933°N, 0.0112°E)
Time: 22:20:15
(UTC+00:00)

YAOGAN 1 - Pass Details

Date: 14 December 2019
Orbit: 619 x 621 km, 98.0° (Epoch: 18 January)

Event Time Altitude Azimuth Distance (km) Brightness Sun altitude
Rises 18:41:03 0° 173° (S) 2,883 6.0 -23.9°
Reaches altitude 10° 18:43:14 10° 176° (S) 1,982 5.2 -24.2°
Maximum altitude 18:47:31 64° 259° (W) 689 2.9 -25.0°
Drops below altitude 10° 18:51:50 10° 341° (NNW) 1,997 5.3 -25.8°
Sets 18:54:03 0° 345° (NNW) 2,908 6.1 -26.2°
